DW1196 Weather Reports


time (UTC)temp
C
wind
direction
speed
KPH
gust
KPH
rain 1hr
cm
rain 24hr
cm
rain mn
cm
humidity
%
barometer
mb
20260504141104 17 272 1.6 3.2 0.00 0.53 0.00 93 1017.0
20260504140604 17 272 3.2 11.3 0.00 0.53 0.00 93 1017.1
20260504140104 17 281 4.8 8.0 0.00 0.53 0.00 93 1017.1
20260504130604 17 259 6.4 12.9 0.00 0.53 0.53 93 1017.2
20260504130104 17 284 6.4 11.3 0.00 0.53 0.53 93 1017.2
20260504120104 16 270 4.8 8.0 0.00 0.53 0.53 92 1017.2
20260504110604 17 243 9.7 14.5 0.00 0.53 0.53 91 1016.7
20260504100604 18 245 1.6 3.2 0.00 0.53 0.53 89 1015.9
20260504100105 18 245 0.0 3.2 0.00 0.53 0.53 89 1015.9
20260504090104 20 336 3.2 4.8 0.00 0.53 0.53 81 1015.9
20260504081604 20 25 8.0 19.3 0.00 0.53 0.53 83 1015.4
20260504081104 20 27 4.8 9.7 0.00 0.53 0.53 83 1015.4
20260504080604 20 32 4.8 9.7 0.00 0.53 0.53 83 1015.5
20260504080104 20 30 4.8 9.7 0.00 0.53 0.53 83 1015.4
20260504070104 20 11 8.0 11.3 0.00 0.53 0.53 81 1015.1
20260504060104 20 23 4.8 9.7 0.00 0.53 0.53 80 1015.2
20260504050604 20 356 6.4 19.3 0.00 0.53 0.53 80 1015.3
20260504050104 20 338 9.7 16.1 0.00 0.53 0.53 81 1015.3
20260504045604 20 358 3.2 11.3 0.00 0.53 0.53 83 1015.3
20260504045104 20 340 0.0 4.8 0.00 0.53 0.53 84 1015.3
20260504044603 20 340 3.2 4.8 0.00 0.53 0.53 83 1015.4
20260504044104 20 342 0.0 4.8 0.00 0.53 0.53 83 1015.4
20260504043604 20 343 0.0 3.2 0.00 0.53 0.53 84 1015.3
20260504043104 20 343 1.6 4.8 0.00 0.53 0.53 84 1015.2
20260504042604 20 343 0.0 4.8 0.00 0.53 0.53 86 1015.4
20260504041604 19 5 6.4 11.3 0.00 0.53 0.53 87 1015.4
20260504041104 19 19 4.8 11.3 0.00 0.53 0.53 89 1015.4
20260504040604 19 22 3.2 16.1 0.00 0.53 0.53 90 1015.5
20260504040104 18 34 4.8 14.5 0.00 0.53 0.53 91 1015.6
20260504035604 18 30 6.4 12.9 0.00 0.53 0.53 92 1015.7
20260504035104 18 35 4.8 11.3 0.00 0.53 0.53 92 1015.6
20260504034604 18 6 6.4 16.1 0.00 0.53 0.53 92 1015.7
20260504034104 18 13 3.2 11.3 0.00 0.53 0.53 94 1015.8
20260504033104 17 46 4.8 9.7 0.00 0.53 0.53 94 1015.6
20260504032604 17 38 3.2 12.9 0.00 0.53 0.53 95 1015.9
20260504032104 17 41 6.4 11.3 0.00 0.53 0.53 95 1016.1
20260504031604 17 27 8.0 9.7 0.00 0.53 0.53 95 1016.2
20260504031104 17 55 4.8 16.1 0.00 0.53 0.53 95 1016.1
20260504030104 17 40 9.7 16.1 0.00 0.53 0.53 95 1016.3
20260504024604 17 50 9.7 16.1 0.05 0.53 0.53 95 1016.6
20260504023604 17 46 8.0 16.1 0.15 0.53 0.53 95 1016.8
20260504023104 17 43 11.3 19.3 0.15 0.53 0.53 95 1016.9
20260504022604 17 49 8.0 14.5 0.18 0.53 0.53 95 1017.0
20260504021604 17 52 6.4 12.9 0.23 0.53 0.53 95 1017.3
20260504021104 17 59 9.7 12.9 0.23 0.53 0.53 95 1017.5
20260504020604 17 63 8.0 11.3 0.23 0.53 0.53 95 1017.4
20260504020105 17 71 6.4 9.7 0.23 0.53 0.53 95 1017.5
20260504015604 17 47 6.4 9.7 0.23 0.51 0.51 95 1017.8
20260504015104 17 53 4.8 8.0 0.25 0.51 0.51 95 1018.0
20260504013605 17 29 1.6 4.8 0.23 0.41 0.41 95 1018.4
20260504013104 17 29 3.2 8.0 0.23 0.38 0.38 95 1018.3
20260504012604 17 37 4.8 9.7 0.23 0.36 0.36 94 1018.4
20260504011104 17 121 3.2 4.8 0.20 0.30 0.30 94 1018.5
20260504010604 17 121 0.0 1.6 0.23 0.30 0.30 94 1018.5
20260504010105 17 121 1.6 4.8 0.23 0.30 0.30 94 1018.4
20260504005605 17 121 3.2 4.8 0.20 0.28 0.28 94 1018.5
20260504005104 17 121 1.6 3.2 0.20 0.25 0.25 94 1018.4
20260504004604 17 121 1.6 3.2 0.18 0.23 0.23 94 1018.5
20260504004104 17 121 0.0 0.0 0.15 0.20 0.20 94 1018.5
20260504003604 17 121 0.0 1.6 0.13 0.15 0.15 94 1018.5
20260504003104 17 121 0.0 1.6 0.13 0.15 0.15 94 1018.4
20260504002604 17 121 1.6 3.2 0.15 0.15 0.15 93 1018.4
20260504002104 17 121 1.6 3.2 0.13 0.13 0.13 93 1018.5
20260504001604 17 121 3.2 4.8 0.10 0.10 0.10 93 1018.5
20260504000604 17 121 0.0 4.8 0.08 0.08 0.08 93 1018.4
20260504000104 17 122 1.6 4.8 0.08 0.08 0.08 93 1018.2
20260503235605 17 244 1.6 4.8 0.08 0.08 0.08 93 1018.4
20260503234605 17 309 0.0 0.0 0.05 0.05 0.05 92 1018.5
20260503234104 17 309 0.0 1.6 0.05 0.05 0.05 91 1018.5
20260503233604 17 309 1.6 3.2 0.05 0.05 0.05 91 1018.5
20260503232604 17 309 1.6 4.8 0.00 0.00 0.00 91 1018.6
20260503231104 17 327 4.8 11.3 0.00 0.00 0.00 90 1019.0
20260503230604 17 335 4.8 11.3 0.00 0.00 0.00 89 1019.0
20260503230104 17 323 6.4 12.9 0.00 0.00 0.00 89 1018.9
20260503225604 17 327 6.4 11.3 0.00 0.00 0.00 89 1018.8
20260503224604 17 319 4.8 9.7 0.00 0.00 0.00 89 1018.6
20260503224104 17 332 8.0 11.3 0.00 0.00 0.00 89 1018.5
20260503223604 17 326 4.8 11.3 0.00 0.00 0.00 89 1018.3
20260503223104 17 346 4.8 11.3 0.00 0.00 0.00 89 1018.3
20260503222104 17 12 4.8 8.0 0.00 0.00 0.00 90 1018.0
20260503221604 17 20 4.8 9.7 0.00 0.00 0.00 90 1018.0
20260503221104 17 20 3.2 4.8 0.00 0.00 0.00 90 1017.9
20260503220604 17 29 3.2 9.7 0.00 0.00 0.00 90 1017.9
20260503220104 17 19 4.8 8.0 0.00 0.00 0.00 91 1017.9
20260503215604 17 19 3.2 8.0 0.00 0.00 0.00 91 1017.8
20260503214103 16 19 3.2 11.3 0.00 0.00 0.00 92 1017.6
20260503213604 17 19 4.8 8.0 0.00 0.00 0.00 92 1017.7
20260503213104 16 21 3.2 8.0 0.00 0.00 0.00 92 1017.7
20260503212604 16 67 1.6 3.2 0.00 0.00 0.00 92 1017.8
20260503212104 16 68 1.6 4.8 0.00 0.00 0.00 93 1017.7
20260503211104 16 68 3.2 8.0 0.00 0.00 0.00 93 1017.5
20260503210604 16 69 4.8 4.8 0.00 0.00 0.00 93 1017.3
20260503205604 16 90 1.6 4.8 0.00 0.00 0.00 93 1017.3
20260503205104 16 91 0.0 1.6 0.00 0.00 0.00 93 1017.2
20260503204604 16 253 0.0 1.6 0.00 0.00 0.00 93 1017.2
20260503204104 16 255 0.0 1.6 0.00 0.00 0.00 94 1017.1
20260503203604 16 255 1.6 3.2 0.00 0.00 0.00 93 1017.1
20260503203104 16 255 0.0 1.6 0.00 0.00 0.00 94 1017.0
20260503202604 16 255 0.0 0.0 0.00 0.00 0.00 94 1017.0
20260503202104 16 255 0.0 0.0 0.00 0.00 0.00 94 1017.0
20260503201603 16 255 0.0 0.0 0.00 0.00 0.00 94 1017.0
20260503201104 16 255 0.0 1.6 0.00 0.00 0.00 94 1016.9
20260503200604 16 255 1.6 3.2 0.00 0.00 0.00 94 1016.9
20260503200104 15 255 1.6 3.2 0.00 0.00 0.00 94 1016.9
20260503195604 15 255 0.0 0.0 0.00 0.00 0.00 94 1016.8
20260503195104 15 255 0.0 1.6 0.00 0.00 0.00 94 1016.7
20260503194604 15 255 1.6 3.2 0.00 0.00 0.00 94 1016.7
20260503193604 15 255 3.2 4.8 0.00 0.00 0.00 94 1016.6
20260503193103 15 255 1.6 4.8 0.00 0.00 0.00 94 1016.6
20260503192604 15 255 1.6 3.2 0.00 0.00 0.00 94 1016.6
20260503192104 15 255 1.6 4.8 0.00 0.00 0.00 94 1016.5
20260503191604 15 255 1.6 1.6 0.00 0.00 0.00 94 1016.6
20260503191104 15 255 0.0 0.0 0.00 0.00 0.00 94 1016.6
20260503190104 15 255 0.0 1.6 0.00 0.00 0.00 94 1016.7
20260503185604 15 255 1.6 3.2 0.00 0.00 0.00 94 1016.6
20260503185104 15 255 1.6 4.8 0.00 0.00 0.00 94 1016.6
20260503184604 15 255 3.2 4.8 0.00 0.00 0.00 94 1016.7
20260503184104 15 255 1.6 3.2 0.00 0.00 0.00 94 1016.7
20260503183604 15 255 0.0 1.6 0.00 0.00 0.00 94 1016.7
20260503183104 15 255 0.0 1.6 0.00 0.00 0.00 94 1016.6
20260503182604 15 255 0.0 1.6 0.00 0.00 0.00 94 1016.6
20260503182104 15 255 0.0 0.0 0.00 0.00 0.00 94 1016.6
20260503181604 15 255 1.6 3.2 0.00 0.00 0.00 94 1016.7
20260503181104 15 255 1.6 3.2 0.00 0.00 0.00 94 1016.8
20260503180604 15 255 0.0 1.6 0.00 0.00 0.00 94 1016.6
20260503180104 15 255 0.0 1.6 0.00 0.00 0.00 94 1016.6
20260503175604 15 255 0.0 1.6 0.00 0.00 0.00 94 1016.6
20260503174104 15 255 0.0 1.6 0.00 0.00 0.00 94 1016.6
20260503173604 15 255 0.0 1.6 0.00 0.00 0.00 94 1016.6
20260503173104 15 255 0.0 0.0 0.00 0.00 0.00 94 1016.7
20260503172604 15 255 0.0 1.6 0.00 0.00 0.00 94 1016.7
20260503172104 15 255 1.6 3.2 0.00 0.00 0.00 94 1016.7
20260503171604 15 255 1.6 3.2 0.00 0.00 0.00 94 1016.8
20260503171104 15 255 0.0 1.6 0.00 0.00 0.00 94 1016.8
20260503170604 15 255 1.6 3.2 0.00 0.00 0.00 93 1016.8
20260503170104 15 255 0.0 3.2 0.00 0.00 0.00 93 1016.9
20260503160105 15 88 1.6 3.2 0.00 0.00 0.00 93 1017.7